User: anonymous   Login
Location: York
(31.8935°S, 116.7682°E)
Time: 12:01:10
(UTC+08:00)
Language:

A-11 Canister half - Orbit

View from above orbital plane
View from above orbital plane
View from above satellite
View from above satellite

Ground track
Ground track

The orbit data is extracted from the following two-line orbital elements,

1 00051U 60009C   24057.24252800 -.00000038  00000-0  44500-3 0  9990
2 00051  47.2117 134.5207 0109538 212.7695 146.6265 12.18321623828524
Epoch (UTC): 26 February 2024 05:49:14
Eccentricity: 0.0109538
inclination: 47.2117°
perigee height: 1512 km
apogee height: 1687 km
right ascension of ascending node: 134.5207°
argument of perigee: 212.7695°
revolutions per day: 12.18321623
mean anomaly at epoch: 146.6265°
orbit number at epoch: 82852

The dashed part of the orbit path shows where the satellite is in the earth's shadow,  

DLR